This is the latest recevied weather packets stored in our database for station/object YM2KV-13. If no packets are shown the sender has not sent any weather packets the latest 10 day(s).
| Time | Temp. | Humidity | Pressure | Rain* | Wind** | Luminosity | Snow |
|---|---|---|---|---|---|---|---|
| 1777307896 | 11.11° C | 65% | 1032.5 hPa | - | - | - | - |
| 1777307296 | 11.11° C | 65% | 1032.5 hPa | - | - | - | - |
| 1777306696 | 11.11° C | 64% | 1032.6 hPa | - | - | - | - |
| 1777306096 | 11.67° C | 64% | 1032.5 hPa | - | - | - | - |
| 1777305496 | 11.67° C | 62% | 1032.5 hPa | - | - | - | - |
| 1777304896 | 12.22° C | 61% | 1032.5 hPa | - | - | - | - |
| 1777304296 | 12.78° C | 59% | 1032.4 hPa | - | - | - | - |
| 1777303696 | 12.78° C | 58% | 1032.5 hPa | - | - | - | - |
| 1777303096 | 13.33° C | 57% | 1032.6 hPa | - | - | - | - |
| 1777302496 | 13.33° C | 55% | 1032.6 hPa | - | - | - | - |
| 1777301896 | 13.89° C | 53% | 1032.8 hPa | - | - | - | - |
| 1777301296 | 14.44° C | 53% | 1032.8 hPa | - | - | - | - |
| 1777300696 | 14.44° C | 53% | 1032.8 hPa | - | - | - | - |
| 1777300096 | 14.44° C | 52% | 1032.9 hPa | - | - | - | - |
| 1777299496 | 15° C | 52% | 1032.9 hPa | - | - | - | - |
| 1777298896 | 15.56° C | 49% | 1032.9 hPa | - | - | - | - |
| 1777298296 | 15.56° C | 46% | 1033 hPa | - | - | - | - |
| 1777297696 | 16.11° C | 45% | 1032.9 hPa | - | - | - | - |
| 1777297096 | 16.11° C | 44% | 1033.1 hPa | - | - | - | - |
| 1777296496 | 16.11° C | 44% | 1033 hPa | - | - | - | - |
| 1777295895 | 17.22° C | 44% | 1033.1 hPa | - | - | - | - |
| 1777295295 | 16.67° C | 45% | 1033.2 hPa | - | - | - | - |
| 1777294696 | 16.67° C | 44% | 1033.3 hPa | - | - | - | - |
| 1777294096 | 16.67° C | 45% | 1033.3 hPa | - | - | - | - |
| 1777293495 | 17.22° C | 45% | 1033.4 hPa | - | - | - | - |
* Rain since midnight (hover to see other rain measurements)
** Current wind speed in m/s (hover to see current wind gust speed)